Tracking 21473 objects as of 19-Sep-2020
HD Live streaming from Space Station
objects crossing your sky now

CZ-3A R/B

Track CZ-3A R/B now!
10-day predictions


NORAD ID: 37235
Int'l Code: 2010-064B
Perigee: 142.9 km
Apogee: 8,737.8 km
Inclination: 24.2 °
Period: 186.5 minutes
Semi major axis: 10811 km
RCS: 5.0119 m2 (large)
Launch date: November 24, 2010
Source: People's Republic of China (PRC)
Launch site: Xichang Space Center, China (XSC)

Note: This is a ROCKET BODY
aabbcc
Your satellite tracking list
Your tracking list is empty




NASA's NSSDC Master Catalog

Two Line Element Set (TLE):
1 37235U 10064B   20262.61016898  .00574874 -76104-6  29258-3 0  9991
2 37235  24.1887  81.4585 3974941 319.6224  16.7743  7.72296876122475
Source of the keplerian elements: AFSPC